This demonstration page uses our WeatherBlox Daily Observations layout. Learn more.

Left ArrowRight Arrow

Hourly Observations for September 22, 2015

Temp ( °F °C ) Dew Point ( °F °C ) Humidity (%) Winds ( mph kmh ) Pressure ( in mb ) Visibility ( mi km ) Precip ( " mm )
12:52 am 00:52 Clear 66 18.9 64 17.8 93 93 S 7 11 29.96 1015 7 11 0.00 0.00
1:52 am 01:52 Clear 64 17.8 63 17.2 96 96 SSE 6 9 29.97 1015 7 11 0.00 0.00
2:52 am 02:52 Clear 64 17.8 63 17.2 96 96 SSE 6 9 29.97 1015 7 11 0.00 0.00
3:52 am 03:52 Clear 63 17.2 62 16.7 97 97 SSE 6 9 29.97 1015 7 11 0.00 0.00
4:52 am 04:52 Clear 63 17.2 62 16.7 97 97 E 5 7 29.98 1015 7 11 0.00 0.00
5:52 am 05:52 Clear 63 17.2 62 16.7 97 97 SE 8 13 29.99 1016 7 11 0.00 0.00
6:52 am 06:52 Partly Cloudy with Mist and Fog 64 17.8 63 17.2 96 96 SE 6 9 30.00 1016 6 10 0.00 0.00
7:52 am 07:52 Mostly Cloudy 65 18.3 63 17.2 93 93 SE 9 15 30.01 1016 7 11 0.00 0.00
8:52 am 08:52 Cloudy 68 20 65 18.3 90 90 SSE 10 17 30.02 1017 7 11 0.00 0.00
9:52 am 09:52 Cloudy 70 21.1 66 18.9 87 87 SE 14 22 30.03 1017 10 16 0.00 0.00
10:52 am 10:52 Mostly Cloudy 73 22.8 67 19.4 81 81 SSE 14 22 30.03 1017 10 16 0.00 0.00
11:52 am 11:52 Mostly Cloudy 78 25.6 68 20 71 71 SSE 12 19 30.03 1017 10 16 0.00 0.00
12:52 pm 12:52 Mostly Cloudy 80 26.7 68 20 67 67 S 7 11 30.02 1017 10 16 0.00 0.00
1:52 pm 13:52 Mostly Cloudy 82 27.8 68 20 63 63 ESE 5 7 30.02 1017 10 16 0.00 0.00
2:52 pm 14:52 Mostly Cloudy 84 28.9 68 20 59 59 Calm 30.01 1016 10 16 0.00 0.00
3:52 pm 15:52 Mostly Cloudy with Thunderstorms 84 28.9 67 19.4 57 57 NE 14 22 29.98 1015 10 16 0.00 0.00
4:52 pm 16:52 Mostly Cloudy with Thunderstorms 77 25 65 18.3 66 66 SSE 6 9 30.05 1018 7 11 0.07 1.78
5:52 pm 17:52 Mostly Cloudy with Light Rain 71 21.7 66 18.9 84 84 E 13 20 30.02 1017 10 16 0.12 3.05
6:52 pm 18:52 Mostly Cloudy 73 22.8 66 18.9 79 79 E 3 6 30.03 1017 10 16 0.00 0.03
7:52 pm 19:52 Mostly Cloudy 70 21.1 61 16.1 73 73 SE 23 37 30.05 1018 10 16 0.00 0.00
8:52 pm 20:52 Mostly Cloudy 69 20.6 60 15.6 73 73 SE 14 22 30.06 1018 10 16 0.00 0.00
9:52 pm 21:52 Mostly Cloudy 69 20.6 61 16.1 76 76 ENE 6 9 30.08 1019 10 16 0.00 0.03
10:52 pm 22:52 Mostly Cloudy 71 21.7 61 16.1 71 71 S 10 17 30.05 1018 10 16 0.00 0.00
11:52 pm 23:52 Mostly Cloudy 69 20.6 62 16.7 78 78 SSE 10 17 30.00 1016 10 16 0.00 0.00

Powered by AerisWeather